TIME,DELAY(SENSOR),PRES,OXYGEN,RAWTEMP,T(OPTODE),TCPHASE,FLUOR,BETA(BETA700),BETA(BETA412),BETA(BETA440),CDOM,C(CSC),ED(ED412.20),ED(ED444.00),ED(ED489.60),ED(ED554.30),LU(LU412.10),LU(LU443.90),LU(LU489.70),LU(LU554.70),COMP,TILTX,TILTY,CHECK
1353553311,5808,872.9299926757812000,32.4902191162109400,560.3461303710938000,4.4751682281494140,56.6921691894531250,55,100,100,80,81,15555,0,0,0,0,2147125586,2147774134,2147571565,2147570688,466,3,13,17340
1353556907,5812,956.9699707031250000,39.7923088073730500,564.8148193359375000,4.3365797996521000,55.5900192260742200,54,99,100,77,82,15551,0,0,0,0,2147124324,2147773485,2147574308,2147571675,6,3,13,32346
1353560507,5810,973.5999755859375000,40.9548416137695300,566.7067871093750000,4.2778511047363280,55.4394798278808600,55,98,100,78,82,15550,0,0,0,0,2147120795,2147775021,2147575798,2147570468,3562,3,13,22817
1353564107,5809,984.5100097656250000,40.4738693237304700,566.2562255859375000,4.2918419837951660,55.5025215148925800,55,100,100,79,82,15549,0,0,0,0,2147125403,2147771629,2147572827,2147568841,3319,2,13,22750
1353567707,5807,982.9600219726562000,40.5672683715820300,566.6588745117188000,4.2793412208557130,55.4968681335449200,56,97,100,76,82,15551,0,0,0,0,2147124077,2147771538,2147571081,2147568384,187,3,13,48327
1353571307,5810,973.7800292968750000,40.6916999816894500,567.2979125976562000,4.2595009803771970,55.4837989807128900,56,102,101,79,82,15537,0,0,0,0,2147124150,2147778358,2147575661,2147570249,230,3,13,17403
1353574907,5810,984.4899902343750000,40.2395401000976560,566.9432983398438000,4.2705101966857910,55.5497817993164060,54,99,99,77,83,15537,0,0,0,0,2147127241,2147774345,2147569170,2147568118,329,3,13,37501
1353578507,5812,985.6199951171875000,40.7504005432128900,567.6204833984375000,4.2494812011718750,55.4769096374511700,53,98,100,78,83,15531,0,0,0,0,2147125056,2147770578,2147573074,2147568438,38,3,13,58314
1353582107,5811,988.7800292968750000,40.3825683593750000,567.1088256835938000,4.2653708457946780,55.5256195068359400,55,98,100,79,82,15531,0,0,0,0,2147121993,2147772352,2147576374,2147567030,3246,3,13,1804
1353585707,5811,987.2100219726562000,40.2930984497070300,567.7684936523438000,4.2448840141296390,55.5448188781738300,54,100,101,78,82,15530,0,0,0,0,2147123008,2147772708,2147572562,2147568402,3248,3,13,39430
1353589307,5810,989.1599731445312000,40.5396614074707000,567.6176147460938000,4.2495732307434080,55.5118217468261700,54,98,100,78,81,15526,0,0,0,0,2147124498,2147772772,2147573110,2147567460,2981,3,13,65141
1353592907,5810,984.7299804687500000,40.2127990722656250,567.4669799804688000,4.2542500495910645,55.5583114624023440,54,99,100,79,83,15530,0,0,0,0,2147126043,2147770925,2147575652,2147568292,3415,3,13,33487
1353596507,5811,980.6199951171875000,40.4808998107910160,568.8225097656250000,4.2121472358703610,55.5311698913574200,56,98,101,78,82,15530,0,0,0,0,2147122880,2147770989,2147571373,2147569106,3450,2,13,638
1353600107,5810,983.3699951171875000,41.1950607299804700,569.4406127929688000,4.1929450035095215,55.4292716979980500,55,99,100,77,81,15514,0,0,0,0,2147124681,2147771456,2147571410,2147571017,3529,3,13,32761
1353603707,5810,987.4000244140625000,40.9628791809082000,569.2421264648438000,4.1991119384765625,55.4618110656738300,54,98,100,77,81,15513,0,0,0,0,2147123355,2147772955,2147577700,2147571428,95,3,13,57395
1353607307,5811,977.4500122070312000,41.0903816223144500,569.3463745117188000,4.1958689689636230,55.4466514587402340,55,100,100,78,83,15512,0,0,0,0,2147120667,2147774820,2147572598,2147569353,3,3,13,37244
1353610907,5810,982.7700195312500000,41.7388000488281250,569.8217163085938000,4.1811008453369140,55.3567886352539060,55,101,101,78,82,15515,0,0,0,0,2147124059,2147773248,2147570066,2147571355,29,3,13,19279
1353614507,5812,987.5999755859375000,41.2920112609863300,569.5936279296875000,4.1881899833679200,55.4174118041992200,55,99,99,78,82,15512,0,0,0,0,2147122560,2147771190,2147570669,2147567753,53,3,13,20374
1353618107,5813,983.0399780273438000,41.6369705200195300,569.5642700195312000,4.1890997886657715,55.3652610778808600,55,99,100,79,83,15515,0,0,0,0,2147126381,2147775744,2147573238,2147566518,3556,3,13,59763
1353621707,5809,990.9099731445312000,41.3338890075683600,569.1975708007812000,4.2004928588867190,55.4079017639160160,55,99,101,78,83,15458,0,0,0,0,2147123922,2147774857,2147575387,2147563730,224,3,13,57266
1353625307,5809,992.3200073242188000,40.9185295104980500,568.3881835937500000,4.2256369590759280,55.4622497558593750,55,97,102,79,82,15457,0,0,0,0,2147123840,2147774153,2147574080,2147565796,140,3,13,64695
1353628907,5810,996.0599975585938000,40.5489006042480500,568.5208129882812000,4.2215189933776855,55.5193901062011700,55,99,100,79,82,15456,0,0,0,0,2147124032,2147773275,2147572864,2147565366,83,3,13,58276
1353632507,5811,991.7999877929688000,40.6272315979003900,568.7371215820312000,4.2147998809814450,55.5056190490722660,54,100,101,77,82,15457,0,0,0,0,2147126235,2147772315,2147571574,2147567597,53,3,13,43999
1353636107,5812,987.3300170898438000,41.0431404113769500,568.7659912109375000,4.2139019966125490,55.4512100219726560,55,99,102,78,82,15453,0,0,0,0,2147125650,2147772434,2147574610,2147567698,393,3,13,7678
1353639707,5807,986.1900024414062000,40.9547615051269500,568.7321166992188000,4.2149558067321780,55.4577484130859400,55,99,101,78,82,15451,0,0,0,0,2147123885,2147769828,2147573366,2147565659,463,3,13,13144
1353643307,5807,994.3300170898438000,40.7842407226562500,569.0009155273438000,4.2066040039062500,55.4867401123046900,54,97,99,77,81,15452,0,0,0,0,2147125595,2147771968,2147570797,2147568448,3305,3,13,64267
1353646907,5810,1000.2000122070312000,40.1996307373046900,567.5897216796875000,4.2504367828369140,55.5616111755371100,55,101,100,78,83,15453,0,0,0,0,2147124598,2147773485,2147566838,2147563410,41,3,13,31991
1353650507,5754,1002.6500244140625000,40.0597190856933600,567.4475708007812000,4.2548480033874510,55.5799407958984400,55,99,101,78,83,15449,0,0,0,0,2147123968,2147769124,2147574674,2147570358,463,2,13,6803
1353654107,5808,1000.4899902343750000,40.3625106811523440,567.7603759765625000,4.2451357841491700,55.5349006652832000,55,98,100,77,82,15452,0,0,0,0,2147126180,2147773449,2147570724,2147567030,3508,3,13,15778
1353657707,5809,989.7600097656250000,40.0205383300781250,568.6901855468750000,4.2162551879882810,55.5999717712402340,55,98,101,77,83,15451,0,0,0,0,2147125705,2147773833,2147574116,2147568173,3177,3,13,7619
1353661307,5811,992.0000000000000000,40.9139404296875000,569.7650756835938000,4.1828608512878420,55.4778709411621100,54,98,100,78,82,15444,0,0,0,0,2147127588,2147776365,2147571510,2147567561,3562,3,13,63928
1353664907,5813,997.5399780273438000,41.2768783569335940,568.9041748046875000,4.2096080780029300,55.4156417846679700,55,99,100,77,84,15444,0,0,0,0,2147124736,2147771730,2147569627,2147567488,3488,3,13,26369
1353668507,5808,999.5700073242188000,39.8562088012695300,567.1187744140625000,4.2650599479675290,55.6043281555175800,54,99,100,77,81,15443,0,0,0,0,2147122907,2147777618,2147566628,2147564169,242,3,13,9801
1353672107,5810,1002.3599853515625000,39.3087997436523440,567.1588745117188000,4.2638168334960940,55.6865196228027340,54,98,101,78,82,15443,0,0,0,0,2147122633,2147778788,2147577051,2147566061,3255,3,13,29111
1353675707,5812,996.2800292968750000,40.0844497680664060,568.4473876953125000,4.2237992286682130,55.5835189819335940,55,98,101,77,82,15443,0,0,0,0,2147126902,2147772681,2147572900,2147567643,29,3,13,53435
1353679307,5807,993.2199707031250000,41.1977081298828100,569.0286254882812000,4.2057461738586430,55.4283103942871100,53,98,101,78,82,15442,0,0,0,0,2147124653,2147774811,2147570816,2147568950,3594,3,13,37628
1353682907,5809,985.2999877929688000,40.9275894165039060,570.3400878906250000,4.1649909019470215,55.4856300354003900,55,101,100,79,82,15443,0,0,0,0,2147126884,2147774217,2147572288,2147569005,3433,3,13,52005
1353686507,5808,982.0800170898438000,39.5936508178710940,570.5894165039062000,4.1572461128234860,55.6804008483886700,55,99,100,77,82,15443,0,0,0,0,2147120749,2147773668,2147576905,2147566628,152,3,13,49375
1353690107,5810,994.2100219726562000,41.5407714843750000,570.0363769531250000,4.1744289398193360,55.3889884948730500,55,99,100,78,81,15445,0,0,0,0,2147123968,2147775652,2147575707,2147569581,112,3,13,34341
1353693707,5811,992.1599731445312000,41.2132110595703100,570.0371704101562000,4.1744041442871090,55.4383506774902340,55,99,100,79,82,15445,0,0,0,0,2147125440,2147769033,2147571638,2147567497,2,3,13,22410
1353697307,5811,1000.5399780273438000,41.2601699829101560,569.3201293945312000,4.1966881752014160,55.4200897216796900,54,100,100,78,82,15443,0,0,0,0,2147124507,2147778102,2147574317,2147568612,10,3,13,14756
1353698757,5808,996.0499877929688000,40.9880409240722660,568.9932250976562000,4.2068438529968260,55.4603309631347660,54,100,101,81,83,15442,0,0,0,0,2147121856,2147771904,2147573613,2147568182,3286,3,13,40123
